Weather reports worldwide

Advertisment
Fair Isle, United Kingdom (3008): temperature & dewpoint: 06.11.2019 16:00:00 - 12.11.2019 16:00:00 (GMT)Fair Isle, United Kingdom (3008): temperature -20cm & temperature -100cm: 06.11.2019 16:00:00 - 12.11.2019 16:00:00 (GMT)Fair Isle, United Kingdom (3008): wind speed & gusts: 06.11.2019 16:00:00 - 12.11.2019 16:00:00 (GMT)Fair Isle, United Kingdom (3008): wind direction: 06.11.2019 16:00:00 - 12.11.2019 16:00:00 (GMT)Fair Isle, United Kingdom (3008): reduced air pressure: 06.11.2019 16:00:00 - 12.11.2019 16:00:00 (GMT)Fair Isle, United Kingdom (3008): visibility: 06.11.2019 16:00:00 - 12.11.2019 16:00:00 (GMT)Fair Isle, United Kingdom (3008): precipitation: 06.11.2019 16:00:00 - 12.11.2019 16:00:00 (GMT)
Date & Time tt [°C] td [°C] tt -20cm [°C] tt -100cm [°C] ff [km/h] ff [kn] fx [km/h] fx [kn] dd ppp [hPa] vv [km] rr [mm]
12.11.2019 16:00:00 - - - - - - - - - - - -
12.11.2019 15:00:00 4,9 -1,3 - - 31 17 46 25 N 997,4 35 0,0
12.11.2019 14:00:00 5,0 -0,5 - - 34 18 46 25 NNE 997,0 26 0,0
12.11.2019 13:00:00 5,1 0,9 - - 37 20 50 27 NNE 996,7 29 0,0
12.11.2019 12:00:00 4,5 1,8 - - 41 22 55 30 NNE 996,8 17 0,0
12.11.2019 11:00:00 5,3 0,4 - - 35 19 55 30 NNE 996,5 30 0,0
12.11.2019 10:00:00 5,0 0,5 - - 41 22 55 30 NNE 996,7 35 0,0
12.11.2019 09:00:00 5,1 1,3 6,7 8,0 44 24 57 31 NNE 996,2 35 0,0
12.11.2019 08:00:00 5,3 2,2 - - 42 23 57 31 NE 995,9 18 0,0
12.11.2019 07:00:00 5,5 2,8 - - 44 24 59 32 NE 995,4 20 0,0
12.11.2019 06:00:00 5,3 2,9 - - 46 25 63 34 NE 994,9 20 0,0
12.11.2019 05:00:00 5,2 3,3 - - 46 25 67 36 NE 994,7 15 0,0
12.11.2019 04:00:00 5,1 3,1 - - 48 26 63 34 NE 994,6 15 0,0
12.11.2019 03:00:00 5,2 3,4 - - 50 27 70 38 ENE 994,4 17 0,0
12.11.2019 02:00:00 5,4 4,0 - - 46 25 68 37 ENE 994,2 13 0,2
12.11.2019 01:00:00 5,1 3,8 - - 48 26 72 39 ENE 994,3 10 0,0
12.11.2019 00:00:00 5,5 4,3 - - 52 28 72 39 ENE 994,2 11 0,2
11.11.2019 23:00:00 5,8 4,8 - - 50 27 68 37 ENE 993,9 9 0,4
11.11.2019 22:00:00 5,9 4,7 - - 46 25 70 38 ENE 993,8 13 0,0
11.11.2019 21:00:00 6,5 5,1 - - 46 25 68 37 E 993,8 14 0,0
11.11.2019 20:00:00 6,1 4,4 - - 48 26 74 40 ENE 993,8 11 0,0
11.11.2019 19:00:00 5,9 4,7 - - 50 27 89 48 E 994,0 12 0,0
11.11.2019 18:00:00 5,6 4,7 - - 52 28 81 44 E 994,2 6 0,4
11.11.2019 17:00:00 5,4 4,1 - - 44 24 78 42 E 994,4 4,5 0,6
11.11.2019 16:00:00 5,4 3,6 - - 42 23 74 40 E 994,6 12 0,2
11.11.2019 15:00:00 5,4 3,0 - - 42 23 72 39 E 994,7 19 0,0
11.11.2019 14:00:00 5,3 3,4 - - 35 19 67 36 E 995,2 16 0,2
11.11.2019 13:00:00 5,0 3,1 - - 37 20 65 35 E 995,8 13 0,4
11.11.2019 12:00:00 5,0 3,3 - - 37 20 63 34 E 996,3 35 0,4
11.11.2019 11:00:00 5,0 2,7 - - 37 20 67 36 E 996,8 9 0,2
11.11.2019 10:00:00 5,1 2,3 - - 42 23 70 38 E 997,3 12 0,4
11.11.2019 09:00:00 4,6 0,0 6,7 8,2 42 23 68 37 E 997,7 14 0,0
11.11.2019 08:00:00 4,8 -1,5 - - 44 24 70 38 E 998,1 28 0,0
11.11.2019 07:00:00 5,2 -1,3 - - 48 26 78 42 E 998,4 30 0,0
11.11.2019 06:00:00 5,5 -1,2 - - 42 23 65 35 E 998,8 35 0,0
11.11.2019 05:00:00 5,3 0,2 - - 46 25 70 38 E 999,5 45 0,0
11.11.2019 04:00:00 4,6 -0,3 - - 44 24 65 35 E 1000,6 13 0,0
11.11.2019 03:00:00 4,8 -0,2 - - 37 20 55 30 E 1001,8 30 0,0
11.11.2019 02:00:00 5,1 -2,4 - - 35 19 55 30 E 1002,7 40 0,0
11.11.2019 01:00:00 4,6 -1,8 - - 35 19 55 30 E 1003,7 45 0,0
11.11.2019 00:00:00 4,5 -1,5 - - 29 16 48 26 E 1005,5 40 0,0
10.11.2019 23:00:00 4,7 -1,3 - - 26 14 - - E 1007,1 45 0,0
10.11.2019 22:00:00 4,3 -1,7 - - 24 13 - - E 1008,2 45 0,0
10.11.2019 21:00:00 5,1 -2,6 - - 22 12 - - ESE 1009,2 50 0,0
10.11.2019 20:00:00 5,2 -1,6 - - 22 12 - - ESE 1010,1 40 0,0
10.11.2019 19:00:00 4,3 -0,6 - - 31 17 - - E 1010,8 35 0,0
10.11.2019 18:00:00 4,9 -2,8 - - 13 7 - - ESE 1012,3 50 0,0
10.11.2019 17:00:00 5,1 -2,2 - - 16 9 - - E 1012,8 45 0,0
10.11.2019 16:00:00 5,0 -2,9 - - 11 6 - - E 1013,6 50 0,0
10.11.2019 15:00:00 5,5 -1,9 - - 13 7 - - ESE 1014,8 50 0,0
10.11.2019 14:00:00 5,8 -3,8 - - 9 5 - - E 1015,9 30 0,0
10.11.2019 13:00:00 6,0 -1,3 - - 15 8 - - E 1016,3 30 0,0
10.11.2019 12:00:00 5,5 -2,7 - - 18 10 - - NE 1017,0 30 0,0
10.11.2019 11:00:00 5,8 -3,3 - - 16 9 - - NE 1017,8 40 0,0
10.11.2019 10:00:00 5,5 -0,9 - - 18 10 - - ENE 1018,2 35 0,0
10.11.2019 09:00:00 4,4 -1,4 6,9 8,4 18 10 - - NE 1018,6 40 0,0
10.11.2019 08:00:00 5,1 -1,1 - - 21 11 - - NNE 1018,3 35 0,0
10.11.2019 07:00:00 5,2 -1,5 - - 21 11 - - NNE 1017,8 45 0,0
10.11.2019 06:00:00 4,8 -3,2 - - 26 14 - - NE 1017,8 50 0,0
10.11.2019 05:00:00 4,9 -3,3 - - 28 15 - - NNE 1017,5 50 0,0
10.11.2019 04:00:00 4,9 -2,8 - - 29 16 - - NE 1017,0 50 0,0
10.11.2019 03:00:00 5,1 -0,9 - - 31 17 - - NE 1016,7 35 0,0
10.11.2019 02:00:00 4,5 -1,9 - - 28 15 61 33 NNE 1016,7 45 0,0
10.11.2019 01:00:00 4,7 -1,7 - - 34 18 57 31 NE 1016,1 40 0,0
10.11.2019 00:00:00 5,3 -2,4 - - 35 19 54 29 NE 1015,7 40 0,0
09.11.2019 23:00:00 4,9 -3,2 - - 35 19 48 26 NNE 1015,2 45 0,0
09.11.2019 22:00:00 4,9 -3,7 - - 34 18 46 25 NE 1014,7 45 0,0
09.11.2019 21:00:00 5,2 -1,3 - - 28 15 48 26 NE 1014,1 40 0,0
09.11.2019 20:00:00 4,9 -2,9 - - 34 18 46 25 NE 1013,6 50 0,0
09.11.2019 19:00:00 5,1 -1,5 - - 35 19 48 26 NE 1013,1 45 0,0
09.11.2019 18:00:00 5,0 -2,4 - - 37 20 46 25 NE 1012,6 45 0,0
09.11.2019 17:00:00 4,6 -2,9 - - 31 17 48 26 NE 1012,3 50 0,0
09.11.2019 16:00:00 5,0 -0,9 - - 28 15 - - NNE 1011,6 50 0,0
09.11.2019 15:00:00 4,9 0,0 - - 31 17 - - NE 1011,2 50 0,0
09.11.2019 14:00:00 5,2 -0,1 - - 21 11 - - ENE 1011,1 40 0,0
09.11.2019 13:00:00 4,0 1,3 - - 11 6 52 28 NE 1011,1 45 0,6
09.11.2019 12:00:00 5,8 0,8 - - 18 10 - - E 1011,2 5 0,0
09.11.2019 11:00:00 5,4 0,2 - - 15 8 - - ENE 1011,4 45 0,0
09.11.2019 10:00:00 5,7 -1,6 - - 16 9 - - E 1011,4 45 0,0
09.11.2019 09:00:00 5,2 0,5 7,0 8,7 11 6 - - ENE 1011,6 45 0,0
09.11.2019 08:00:00 5,2 -0,4 - - 13 7 - - ESE 1011,4 50 0,0
09.11.2019 07:00:00 4,9 -1,4 - - 15 8 - - E 1011,2 50 0,0
09.11.2019 06:00:00 4,3 -0,4 - - 18 10 - - E 1011,2 50 0,2
09.11.2019 05:00:00 4,9 -3,2 - - 15 8 - - E 1011,4 50 0,0
09.11.2019 04:00:00 5,0 -1,8 - - 15 8 - - E 1011,7 45 0,0
09.11.2019 03:00:00 4,9 -2,1 - - 11 6 - - E 1012,0 50 0,0
09.11.2019 02:00:00 4,9 -0,8 - - 13 7 - - E 1012,6 50 0,0
09.11.2019 01:00:00 4,9 -1,9 - - 9 5 - - E 1013,2 50 0,0
09.11.2019 00:00:00 4,7 -1,3 - - 13 7 - - E 1013,3 50 0,0
08.11.2019 23:00:00 3,4 -0,3 - - 15 8 - - ENE 1013,8 50 0,0
08.11.2019 22:00:00 4,0 -1,4 - - 11 6 - - ENE 1013,9 50 0,0
08.11.2019 21:00:00 4,1 -1,6 - - 11 6 - - ENE 1014,3 50 0,0
08.11.2019 20:00:00 4,3 -0,3 - - 15 8 - - E 1014,4 50 0,0
08.11.2019 19:00:00 1,9 -1,5 - - 5 3 - - NE 1014,7 50 0,0
08.11.2019 18:00:00 2,4 -1,2 - - 9 5 - - NE 1014,8 50 0,0
08.11.2019 17:00:00 3,4 1,0 - - 11 6 - - NE 1014,8 45 0,0
08.11.2019 16:00:00 2,9 -0,7 - - 11 6 - - NNE 1014,6 50 0,0
08.11.2019 15:00:00 4,2 -0,3 - - 15 8 - - NE 1014,5 50 0,0
08.11.2019 14:00:00 4,7 0,7 - - 18 10 - - NNE 1014,5 50 0,0
08.11.2019 13:00:00 4,7 1,6 - - 21 11 - - NE 1014,7 40 0,0
08.11.2019 12:00:00 4,1 1,9 - - 22 12 - - NE 1014,7 45 0,0
08.11.2019 11:00:00 2,5 0,8 - - 4 2 - - NNE 1015,0 50 1,6
08.11.2019 10:00:00 3,9 1,4 - - 28 15 - - NE 1014,8 40 0,0
08.11.2019 09:00:00 4,3 1,1 7,4 8,7 13 7 - - NNE 1014,3 40 0,0
08.11.2019 08:00:00 3,5 0,6 - - 26 14 - - NNE 1013,9 45 0,0
08.11.2019 07:00:00 3,4 -0,1 - - 21 11 - - NNE 1013,7 50 0,0
08.11.2019 06:00:00 3,4 0,3 - - 22 12 - - N 1013,3 50 0,0
08.11.2019 05:00:00 2,9 -0,1 - - 18 10 - - NNE 1013,1 50 0,0
08.11.2019 04:00:00 2,8 0,1 - - 18 10 - - N 1012,8 50 0,0
08.11.2019 03:00:00 3,7 0,8 - - 26 14 - - NNE 1012,3 45 0,0
08.11.2019 02:00:00 2,1 1,1 - - 22 12 50 27 N 1012,5 18 0,6
08.11.2019 01:00:00 3,2 1,2 - - 24 13 - - N 1012,0 50 0,2
08.11.2019 00:00:00 2,9 1,7 - - 35 19 61 33 N 1011,7 11 0,0
07.11.2019 23:00:00 3,5 1,2 - - 28 15 - - N 1011,2 50 0,0
07.11.2019 22:00:00 2,6 0,8 - - 34 18 52 28 NNE 1011,2 50 0,0
07.11.2019 21:00:00 2,8 -0,2 - - 28 15 50 27 NNE 1011,1 50 -
07.11.2019 20:00:00 3,6 -0,3 - - 28 15 46 25 NNE 1010,8 40 0,0
07.11.2019 19:00:00 3,9 -1,8 - - 29 16 - - N 1010,3 50 0,0
07.11.2019 18:00:00 3,8 -0,3 - - 35 19 48 26 NNE 1010,0 50 0,0
07.11.2019 17:00:00 4,1 -0,7 - - 29 16 - - N 1009,4 50 0,0
07.11.2019 16:00:00 4,3 0,3 - - 31 17 48 26 NNE 1008,9 40 0,0
07.11.2019 15:00:00 5,2 -0,1 - - 31 17 46 25 NNE 1008,5 45 0,0
07.11.2019 14:00:00 5,1 0,2 - - 37 20 48 26 NNE 1008,1 45 0,0
07.11.2019 13:00:00 5,3 0,8 - - 35 19 54 29 NNE 1007,7 40 0,2
07.11.2019 12:00:00 6,5 0,2 - - 31 17 50 27 NNE 1007,2 30 0,0
07.11.2019 11:00:00 5,2 0,4 - - 37 20 52 28 NE 1006,9 26 0,0
07.11.2019 10:00:00 5,5 -0,6 - - 35 19 50 27 ENE 1006,3 40 0,0
07.11.2019 09:00:00 5,2 -2,6 7,7 8,9 35 19 54 29 NE 1005,7 45 0,0
07.11.2019 08:00:00 5,0 0,3 - - 35 19 55 30 ENE 1004,9 35 0,0
07.11.2019 07:00:00 4,9 1,5 - - 39 21 50 27 ENE 1004,4 45 0,2
07.11.2019 06:00:00 4,2 1,6 - - 35 19 52 28 ENE 1003,8 35 0,0
07.11.2019 05:00:00 4,2 0,9 - - 35 19 50 27 NE 1003,5 40 0,0
07.11.2019 04:00:00 3,8 0,5 - - 15 8 - - E 1003,5 50 0,0
07.11.2019 03:00:00 4,0 0,4 - - 16 9 - - NE 1003,3 45 0,0
07.11.2019 02:00:00 4,1 -1,2 - - 13 7 - - ENE 1003,2 50 0,0
07.11.2019 01:00:00 3,9 -1,4 - - 15 8 - - ENE 1003,1 50 0,0
07.11.2019 00:00:00 2,8 -0,6 - - 13 7 - - N 1002,8 50 0,0
06.11.2019 23:00:00 2,8 -0,7 - - 9 5 - - ENE 1002,9 50 0,0
06.11.2019 22:00:00 1,5 -1,8 - - 5 3 - - NE 1003,0 50 0,0
06.11.2019 21:00:00 0,7 -2,6 - - 5 3 - - NNE 1002,9 50 0,0
06.11.2019 20:00:00 1,3 -2,2 - - 9 5 - - NNE 1002,8 45 0,0
06.11.2019 19:00:00 1,9 -1,2 - - 9 5 - - NE 1002,7 50 0,0
06.11.2019 18:00:00 2,4 -1,0 - - 11 6 - - N 1002,8 50 0,0
06.11.2019 17:00:00 1,5 -1,4 - - 11 6 - - N 1002,8 50 0,0
06.11.2019 16:00:00 2,4 -1,7 - - 9 5 - - N 1002,8 50 0,0

tt = temperature
td = dewpoint
tt -20cm = temperature -20cm
tt -100cm = temperature -100cm
ff = wind speed
fx = gusts
dd = wind direction
ppp = reduced air pressure
vv = visibility
rr = precipitation

Next stations